Regional Weather Roundup
Issued by NWS

Home | Current Version | Previous Version | Graphics & Text | Print | Product List | Glossary On
Versions: 1 2 3 4 5 6 7 8 9 10 11 12 13 14 15 16 17 18 19 20 21 22 23 24 25 26 27 28 29 30 31 32 33 34 35 36 37 38 39 40 41 42 43 44 45 46 47 48 49 50
000
ASUS44 KMEG 291800
RWRTN
TENNESSEE HOURLY STATE WEATHER ROUNDUP
NATIONAL WEATHER SERVICE MEMPHIS TN
100 PM CDT FRI JUL 29 2016

TNZ002-004-019-021-049-052-054-088>092-291900-
WEST TENNESSEE

CITY           SKY/WX    TMP DP  RH WIND       PRES   REMARKS
MEMPHIS INTL   PTSUNNY   86  76  71 SW6       29.98F HX  96
NWS MEMPHIS      N/A     85 N/A N/A MISG        N/A
JACKSON        PTSUNNY   84  75  74 W6        29.98F HX  92
DYERSBURG      CLOUDY   N/A N/A N/A MISG        N/A
UNION CITY     MOSUNNY   84  79  84 SW9       29.95F HX  96
PARIS          CLOUDY    77  73  88 SW7       29.99S
LEXINGTON      CLOUDY    82  73  74 VRB6      29.99S
$$

TNZ008-025-027-028-033-062-065-066-291900-
NORTH MIDDLE TENNESSEE

CITY           SKY/WX    TMP DP  RH WIND       PRES   REMARKS
NASHVILLE      CLOUDY    87  73  62 SW7       29.97F HX  94
CLARKSVILLE    MOSUNNY   85  74  69 SW10      29.95F HX  92
COOKEVILLE     PTSUNNY   84  75  74 SW10      30.00F HX  92
CROSSVILLE     MOSUNNY   81  70  69 W9        30.05F
$$

TNZ061-075-076-078-094-096-097-291900-
SOUTH MIDDLE TENNESSEE

CITY           SKY/WX    TMP DP  RH WIND       PRES   REMARKS
TULLAHOMA      PTSUNNY   84  72  65 SW9       30.03F
WINCHESTER     MOSUNNY   84  73  70 W9        30.02F HX  91
MCMINNVILLE    MOSUNNY   82  75  78 W9        30.01F
COLUMBIA       CLOUDY    84  81  89 VRB5      29.98F HX  98
SHELBYVILLE    PTSUNNY   84  75  74 SW9       30.01F HX  92
$$

TNZ017-018-042-046-047-291900-
NORTHEAST TENNESSEE

CITY           SKY/WX    TMP DP  RH WIND       PRES   REMARKS
TRI CITIES     PTSUNNY   83  68  60 VRB3      30.02F
$$

TNZ012-013-036-069-073-074-291900-
CENTRAL EAST TENNESSEE

CITY           SKY/WX    TMP DP  RH WIND       PRES   REMARKS
KNOXVILLE      MOSUNNY   87  69  54 SW8G17    29.99F HX  91
OAK RIDGE      PTSUNNY   89  70  53 VRB3      30.00F HX  94
GATLINBURG       N/A     84  66  54 S5        29.99F
$$

TNZ083-085-099-291900-
SOUTHEAST TENNESSEE

CITY           SKY/WX    TMP DP  RH WIND       PRES   REMARKS
CHATTANOOGA    CLOUDY    87  68  52 W10       30.00F HX  90
$$

SKY/WX REPORTED AS FAIR MEANS FEW OR NO CLOUDS BELOW
12 THOUSAND FEET.





USA.gov is the U.S. government's official web portal to all federal, state and local government web resources and services.